| time (UTC) | temp C | wind direction | speed KPH | gust KPH | rain 1hr cm | rain 24hr cm | rain mn cm | humidity % | barometer mb |
| 20260506184832 | 16 | 147 | 3.2 | 14.5 | 0.00 | 0.00 | 0.00 | 83 | 1021.5 |
| 20260506183333 | 15 | 154 | 4.8 | 12.9 | 0.00 | 0.00 | 0.00 | 85 | 1021.6 |
| 20260506181821 | 15 | 202 | 6.4 | 12.9 | 0.00 | 0.00 | 0.00 | 85 | 1021.6 |
| 20260506180331 | 14 | 112 | 11.3 | 16.1 | 0.00 | 0.00 | 0.00 | 87 | 1021.5 |
| 20260506174833 | 13 | 115 | 11.3 | 16.1 | 0.00 | 0.00 | 0.00 | 88 | 1021.2 |
| 20260506173319 | 13 | 204 | 1.6 | 11.3 | 0.00 | 0.00 | 0.00 | 89 | 1021.4 |
| 20260506171826 | 12 | 197 | 4.8 | 11.3 | 0.00 | 0.00 | 0.00 | 90 | 1021.7 |
| 20260506170314 | 12 | 208 | 4.8 | 11.3 | 0.00 | 0.00 | 0.00 | 92 | 1021.2 |
| 20260506164829 | 12 | 219 | 3.2 | 11.3 | 0.00 | 0.00 | 0.00 | 92 | 1021.5 |
| 20260506163335 | 11 | 204 | 4.8 | 12.9 | 0.00 | 0.00 | 0.00 | 93 | 1021.5 |
| 20260506161835 | 11 | 194 | 4.8 | 11.3 | 0.00 | 0.00 | 0.00 | 94 | 1021.5 |
| 20260506160322 | 11 | 176 | 3.2 | 9.7 | 0.00 | 0.00 | 0.00 | 94 | 1021.1 |
| 20260506154849 | 11 | 167 | 3.2 | 6.4 | 0.00 | 0.00 | 0.00 | 94 | 1020.9 |
| 20260506153330 | 11 | 203 | 1.6 | 6.4 | 0.00 | 0.00 | 0.00 | 94 | 1021.3 |
| 20260506151836 | 11 | 186 | 4.8 | 9.7 | 0.00 | 0.00 | 0.00 | 94 | 1021.3 |
| 20260506150324 | 11 | 237 | 4.8 | 12.9 | 0.00 | 0.00 | 0.00 | 94 | 1021.4 |
| 20260506144827 | 11 | 218 | 9.7 | 22.5 | 0.00 | 0.00 | 0.00 | 93 | 1021.4 |
| 20260506143331 | 10 | 207 | 14.5 | 20.9 | 0.00 | 0.00 | 0.00 | 93 | 1020.8 |
| 20260506141834 | 10 | 169 | 8.0 | 14.5 | 0.00 | 0.00 | 0.00 | 94 | 1020.3 |
| 20260506140321 | 10 | 175 | 4.8 | 9.7 | 0.00 | 0.00 | 0.00 | 95 | 1020.2 |
| 20260506134824 | 10 | 177 | 3.2 | 9.7 | 0.00 | 0.00 | 0.00 | 94 | 1020.4 |
| 20260506133330 | 10 | 179 | 4.8 | 9.7 | 0.00 | 0.00 | 0.00 | 93 | 1020.4 |
| 20260506131832 | 10 | 208 | 1.6 | 6.4 | 0.00 | 0.00 | 0.00 | 91 | 1020.2 |
| 20260506130337 | 10 | 221 | 4.8 | 6.4 | 0.00 | 0.00 | 0.00 | 90 | 1020.2 |
| 20260506124821 | 11 | 235 | 1.6 | 3.2 | 0.00 | 0.00 | 0.00 | 90 | 1020.1 |
| 20260506123326 | 11 | 234 | 3.2 | 12.9 | 0.00 | 0.00 | 0.00 | 90 | 1020.1 |
| 20260506121813 | 11 | 209 | 4.8 | 8.0 | 0.00 | 0.00 | 0.00 | 90 | 1020.1 |
| 20260506120325 | 11 | 210 | 4.8 | 6.4 | 0.00 | 0.00 | 0.00 | 90 | 1019.9 |
| 20260506114829 | 11 | 250 | 3.2 | 9.7 | 0.00 | 0.00 | 0.00 | 91 | 1020.0 |
| 20260506113353 | 11 | 287 | 3.2 | 6.4 | 0.00 | 0.00 | 0.00 | 92 | 1019.5 |
| 20260506111818 | 11 | 196 | 3.2 | 8.0 | 0.00 | 0.00 | 0.00 | 93 | 1019.3 |
| 20260506110323 | 11 | 238 | 0.0 | 4.8 | 0.00 | 0.00 | 0.00 | 93 | 1019.3 |
| 20260506104825 | 11 | 228 | 4.8 | 8.0 | 0.00 | 0.00 | 0.00 | 94 | 1019.0 |
| 20260506103330 | 10 | 233 | 0.0 | 1.6 | 0.00 | 0.00 | 0.00 | 93 | 1018.8 |
| 20260506101855 | 10 | 233 | 0.0 | 0.0 | 0.00 | 0.00 | 0.00 | 91 | 1018.7 |
| 20260506100337 | 11 | 232 | 0.0 | 1.6 | 0.00 | 0.00 | 0.00 | 90 | 1018.6 |
| 20260506094822 | 11 | 233 | 0.0 | 1.6 | 0.00 | 0.00 | 0.00 | 90 | 1018.5 |
| 20260506093328 | 11 | 233 | 0.0 | 3.2 | 0.00 | 0.00 | 0.00 | 89 | 1018.4 |
| 20260506091828 | 12 | 232 | 1.6 | 3.2 | 0.00 | 0.00 | 0.00 | 89 | 1018.3 |
| 20260506090333 | 12 | 225 | 3.2 | 9.7 | 0.00 | 0.00 | 0.00 | 90 | 1018.1 |
| 20260506084819 | 12 | 224 | 11.3 | 17.7 | 0.00 | 0.00 | 0.00 | 89 | 1018.1 |
| 20260506083324 | 12 | 222 | 11.3 | 16.1 | 0.00 | 0.00 | 0.00 | 88 | 1018.0 |
| 20260506081826 | 12 | 231 | 4.8 | 14.5 | 0.00 | 0.00 | 0.00 | 88 | 1018.1 |
| 20260506080333 | 12 | 227 | 9.7 | 12.9 | 0.00 | 0.00 | 0.00 | 87 | 1018.1 |
| 20260506073319 | 13 | 237 | 1.6 | 3.2 | 0.00 | 0.00 | 0.00 | 86 | 1018.0 |
| 20260506071825 | 13 | 237 | 0.0 | 3.2 | 0.00 | 0.00 | 0.00 | 85 | 1018.0 |
| 20260506070331 | 13 | 228 | 0.0 | 3.2 | 0.00 | 0.00 | 0.00 | 86 | 1018.0 |
| 20260506061839 | 13 | 229 | 3.2 | 4.8 | 0.00 | 0.00 | 0.00 | 85 | 1017.9 |
| 20260506060328 | 13 | 229 | 4.8 | 8.0 | 0.00 | 0.00 | 0.00 | 85 | 1017.5 |
| 20260506050337 | 14 | 219 | 6.4 | 8.0 | 0.00 | 0.00 | 0.00 | 83 | 1017.2 |
| 20260506044823 | 15 | 235 | 6.4 | 11.3 | 0.00 | 0.00 | 0.00 | 82 | 1017.1 |
| 20260506043326 | 15 | 277 | 3.2 | 6.4 | 0.00 | 0.00 | 0.00 | 82 | 1017.0 |
| 20260506041834 | 15 | 16 | 1.6 | 3.2 | 0.00 | 0.00 | 0.00 | 80 | 1016.8 |
| 20260506040320 | 16 | 17 | 3.2 | 6.4 | 0.00 | 0.00 | 0.00 | 79 | 1016.5 |
| 20260506034827 | 16 | 22 | 1.6 | 4.8 | 0.00 | 0.00 | 0.00 | 79 | 1016.4 |
| 20260506033333 | 16 | 24 | 3.2 | 4.8 | 0.00 | 0.00 | 0.00 | 78 | 1016.3 |
| 20260506031841 | 16 | 24 | 4.8 | 4.8 | 0.00 | 0.00 | 0.00 | 78 | 1016.2 |
| 20260506030329 | 16 | 27 | 3.2 | 4.8 | 0.00 | 0.00 | 0.00 | 77 | 1015.9 |
| 20260506024835 | 17 | 29 | 3.2 | 9.7 | 0.00 | 0.00 | 0.00 | 77 | 1015.8 |
| 20260506023322 | 17 | 14 | 1.6 | 4.8 | 0.00 | 0.00 | 0.00 | 76 | 1015.8 |
| 20260506021830 | 17 | 344 | 3.2 | 6.4 | 0.00 | 0.00 | 0.00 | 75 | 1015.8 |
| 20260506020334 | 17 | 338 | 1.6 | 9.7 | 0.00 | 0.00 | 0.00 | 75 | 1015.9 |
| 20260506014823 | 17 | 3 | 3.2 | 6.4 | 0.00 | 0.00 | 0.00 | 75 | 1015.9 |
| 20260506013331 | 17 | 331 | 4.8 | 11.3 | 0.00 | 0.00 | 0.00 | 74 | 1015.8 |
| 20260506011835 | 17 | 348 | 3.2 | 11.3 | 0.00 | 0.00 | 0.00 | 73 | 1015.8 |
| 20260506010323 | 17 | 352 | 6.4 | 12.9 | 0.00 | 0.00 | 0.00 | 73 | 1015.7 |
| 20260506004827 | 17 | 22 | 4.8 | 11.3 | 0.00 | 0.00 | 0.00 | 73 | 1015.8 |
| 20260506003358 | 18 | 48 | 6.4 | 12.9 | 0.00 | 0.00 | 0.00 | 71 | 1015.8 |
| 20260506001822 | 18 | 3 | 3.2 | 11.3 | 0.00 | 0.00 | 0.00 | 72 | 1015.7 |
| 20260506000331 | 18 | 350 | 4.8 | 12.9 | 0.00 | 0.00 | 0.00 | 71 | 1015.8 |
| 20260505234817 | 18 | 357 | 3.2 | 11.3 | 0.00 | 0.00 | 0.00 | 74 | 1016.1 |
| 20260505233322 | 18 | 339 | 4.8 | 11.3 | 0.00 | 0.00 | 0.00 | 71 | 1016.2 |
| 20260505231822 | 18 | 23 | 4.8 | 12.9 | 0.00 | 0.00 | 0.00 | 73 | 1016.3 |
| 20260505230326 | 18 | 18 | 3.2 | 8.0 | 0.00 | 0.00 | 0.00 | 73 | 1016.3 |
| 20260505224830 | 18 | 347 | 4.8 | 12.9 | 0.00 | 0.00 | 0.00 | 75 | 1016.5 |
| 20260505223335 | 17 | 358 | 3.2 | 12.9 | 0.00 | 0.00 | 0.00 | 77 | 1016.6 |
| 20260505221838 | 17 | 352 | 4.8 | 9.7 | 0.00 | 0.00 | 0.00 | 78 | 1016.7 |
| 20260505220347 | 16 | 187 | 1.6 | 11.3 | 0.00 | 0.00 | 0.00 | 78 | 1016.7 |
| 20260505214828 | 16 | 346 | 1.6 | 6.4 | 0.00 | 0.00 | 0.00 | 79 | 1016.8 |
| 20260505213334 | 15 | 16 | 6.4 | 11.3 | 0.00 | 0.00 | 0.00 | 81 | 1016.9 |
| 20260505211818 | 15 | 339 | 0.0 | 8.0 | 0.00 | 0.00 | 0.00 | 80 | 1017.0 |
| 20260505210322 | 15 | 317 | 4.8 | 9.7 | 0.00 | 0.00 | 0.00 | 80 | 1017.0 |
| 20260505204828 | 15 | 328 | 3.2 | 11.3 | 0.00 | 0.00 | 0.00 | 81 | 1016.9 |
| 20260505203335 | 15 | 333 | 4.8 | 8.0 | 0.00 | 0.00 | 0.00 | 82 | 1017.2 |
| 20260505201820 | 15 | 331 | 4.8 | 6.4 | 0.00 | 0.00 | 0.00 | 81 | 1017.3 |
| 20260505200328 | 15 | 327 | 6.4 | 11.3 | 0.00 | 0.00 | 0.00 | 81 | 1017.2 |
| 20260505194833 | 15 | 319 | 1.6 | 8.0 | 0.00 | 0.00 | 0.00 | 80 | 1017.3 |
| 20260505193337 | 15 | 352 | 4.8 | 11.3 | 0.00 | 0.00 | 0.00 | 80 | 1017.3 |
| 20260505191825 | 15 | 331 | 4.8 | 6.4 | 0.00 | 0.00 | 0.00 | 81 | 1017.4 |
| 20260505190334 | 15 | 164 | 1.6 | 4.8 | 0.00 | 0.00 | 0.00 | 80 | 1017.3 |